Change the Weather History Date:

Sunday, October 21, 2012

  Actual Average Record
Temperature  
Mean Temperature 66 °F -  
Max Temperature 82 °F 68 °F 89 °F (1912)
Min Temperature 51 °F 42 °F 26 °F (1916)
Cooling Degree Days 2    
Growing Degree Days 16 (Base 50)    
Moisture  
Dew Point 34 °F    
Average Humidity 31    
Maximum Humidity 47    
Minimum Humidity 17    
Precipitation  
Precipitation 0.00 in - - ()
Sea Level Pressure  
Sea Level Pressure 29.89 in    
Wind  
Wind Speed 14 mph (WSW)    
Max Wind Speed 29 mph    
Max Gust Speed 37 mph    
Visibility 10 miles    
Events      
Averages and records for this station are not official NWS values.
T = Trace of Precipitation, MM = Missing Value Source: NWS Daily Summary

Daily Weather History Graph

Daily Weather History Graph

Search for Another Location

Airport or City:

Trip Planner

Search our weather history database for the weather conditions in past years. The results will help you decide how hot, cold, wet, or windy it might be!

Date:

Astronomy

Oct. 21, 2012 Rise Set
Actual Time 7:03 AM MDT 6:09 PM MDT
Civil Twilight 6:37 AM MDT 6:35 PM MDT
Nautical Twilight 6:08 AM MDT 7:04 PM MDT
Astronomical Twilight 5:39 AM MDT 7:33 PM MDT
Moon 1:20 PM MDT (10/21) No Moon Set
Length of Visible Light 11h 57m
Length of Day
11h 06m
Waxing Crescent, 46% of the Moon is Illuminated
Oct 21
Waxing Crescent
Oct 21
First Quarter
Oct 29
Full
Nov 6
Last Quarter
Nov 13
New

Hourly Weather History & Observations

Time (MDT) Temp. Dew Point Humidity Pressure Visibility Wind Dir Wind Speed Gust Speed Precip Events Conditions
12:15 AM 57.2 °F 30.2 °F 36% 29.84 in 10.0 mi WNW 9.2 mph - N/A   Clear
12:35 AM 57.2 °F 30.2 °F 36% 29.84 in 10.0 mi West 9.2 mph - N/A   Clear
12:55 AM 55.4 °F 30.2 °F 38% 29.85 in 10.0 mi West 8.1 mph - N/A   Clear
1:15 AM 53.6 °F 30.2 °F 41% 29.85 in 10.0 mi West 6.9 mph - N/A   Clear
1:35 AM 53.6 °F 30.2 °F 41% 29.85 in 10.0 mi West 5.8 mph - N/A   Clear
1:55 AM 51.8 °F 30.2 °F 44% 29.85 in 10.0 mi WNW 6.9 mph - N/A   Clear
2:15 AM 53.6 °F 30.2 °F 41% 29.85 in 10.0 mi West 8.1 mph - N/A   Clear
2:35 AM 55.4 °F 30.2 °F 38% 29.85 in 10.0 mi West 9.2 mph - N/A   Clear
2:55 AM 55.4 °F 32.0 °F 41% 29.85 in 10.0 mi WSW 10.4 mph - N/A   Clear
3:15 AM 55.4 °F 32.0 °F 41% 29.84 in 10.0 mi WSW 10.4 mph - N/A   Clear
3:35 AM 55.4 °F 33.8 °F 44% 29.84 in 10.0 mi WSW 10.4 mph - N/A   Clear
3:55 AM 55.4 °F 33.8 °F 44% 29.84 in 10.0 mi West 10.4 mph - N/A   Clear
4:15 AM 59.0 °F 33.8 °F 39% 29.84 in 10.0 mi West 12.7 mph - N/A   Clear
4:35 AM 55.4 °F 33.8 °F 44% 29.84 in 10.0 mi WSW 12.7 mph - N/A   Clear
4:55 AM 55.4 °F 33.8 °F 44% 29.84 in 10.0 mi WSW 10.4 mph - N/A   Clear
5:15 AM 55.4 °F 35.6 °F 47% 29.85 in 10.0 mi WSW 13.8 mph - N/A   Clear
5:35 AM 59.0 °F 35.6 °F 42% 29.86 in 10.0 mi WSW 15.0 mph - N/A   Clear
5:55 AM 57.2 °F 35.6 °F 44% 29.86 in 10.0 mi WSW 16.1 mph - N/A   Clear
6:15 AM 55.4 °F 33.8 °F 44% 29.87 in 10.0 mi WSW 15.0 mph - N/A   Clear
6:35 AM 57.2 °F 33.8 °F 41% 29.87 in 10.0 mi WSW 15.0 mph - N/A   Clear
6:55 AM 57.2 °F 33.8 °F 41% 29.88 in 10.0 mi WSW 11.5 mph - N/A   Clear
7:15 AM 57.2 °F 32.0 °F 38% 29.88 in 10.0 mi West 12.7 mph - N/A   Clear
7:35 AM 60.8 °F 33.8 °F 36% 29.89 in 10.0 mi West 17.3 mph - N/A   Clear
7:55 AM 62.6 °F 33.8 °F 34% 29.90 in 10.0 mi West 17.3 mph - N/A   Clear
8:15 AM 64.4 °F 33.8 °F 32% 29.91 in 10.0 mi WSW 13.8 mph - N/A   Clear
8:35 AM 64.4 °F 33.8 °F 32% 29.92 in 10.0 mi WSW 15.0 mph 19.6 mph N/A   Clear
8:55 AM 66.2 °F 35.6 °F 32% 29.93 in 10.0 mi West 16.1 mph 19.6 mph N/A   Clear
9:15 AM 69.8 °F 35.6 °F 28% 29.93 in 10.0 mi West 21.9 mph 26.5 mph N/A   Clear
9:35 AM 71.6 °F 35.6 °F 27% 29.94 in 10.0 mi West 23.0 mph - N/A   Clear
9:55 AM 73.4 °F 37.4 °F 27% 29.95 in 10.0 mi West 23.0 mph 28.8 mph N/A   Clear
10:15 AM 73.4 °F 37.4 °F 27% 29.95 in 10.0 mi West 20.7 mph 28.8 mph N/A   Clear
10:35 AM 75.2 °F 37.4 °F 25% 29.94 in 10.0 mi West 23.0 mph 29.9 mph N/A   Clear
10:55 AM 77.0 °F 37.4 °F 24% 29.94 in 10.0 mi West 28.8 mph - N/A   Clear
11:15 AM 77.0 °F 37.4 °F 24% 29.94 in 10.0 mi West 25.3 mph 32.2 mph N/A   Clear
11:35 AM 77.0 °F 37.4 °F 24% 29.94 in 10.0 mi West 20.7 mph - N/A   Clear
11:55 AM 78.8 °F 37.4 °F 23% 29.94 in 10.0 mi West 21.9 mph 31.1 mph N/A   Clear
12:15 PM 78.8 °F 37.4 °F 23% 29.93 in 10.0 mi West 25.3 mph 31.1 mph N/A   Clear
12:35 PM 78.8 °F 37.4 °F 23% 29.92 in 10.0 mi West 21.9 mph 27.6 mph N/A   Clear
12:55 PM 80.6 °F 39.2 °F 23% 29.91 in 10.0 mi WSW 23.0 mph 32.2 mph N/A   Clear
1:15 PM 82.4 °F 39.2 °F 21% 29.89 in 10.0 mi WSW 26.5 mph 29.9 mph N/A   Clear
1:35 PM 82.4 °F 37.4 °F 20% 29.88 in 10.0 mi West 28.8 mph 35.7 mph N/A   Clear
1:55 PM 82.4 °F 35.6 °F 19% 29.88 in 10.0 mi West 23.0 mph 35.7 mph N/A   Clear
2:15 PM 82.4 °F 35.6 °F 19% 29.87 in 10.0 mi WSW 25.3 mph 33.4 mph N/A   Clear
2:35 PM 82.4 °F 37.4 °F 20% 29.87 in 10.0 mi West 20.7 mph 34.5 mph N/A   Clear
2:55 PM 82.4 °F 35.6 °F 19% 29.87 in 10.0 mi WSW 27.6 mph 31.1 mph N/A   Clear
3:15 PM 82.4 °F 35.6 °F 19% 29.87 in 10.0 mi West 27.6 mph 36.8 mph N/A   Clear
3:35 PM 82.4 °F 35.6 °F 19% 29.87 in 10.0 mi WSW 26.5 mph 32.2 mph N/A   Clear
3:55 PM 82.4 °F 33.8 °F 17% 29.87 in 10.0 mi WSW 26.5 mph 33.4 mph N/A   Clear
4:15 PM 82.4 °F 33.8 °F 17% 29.87 in 10.0 mi WSW 27.6 mph 35.7 mph N/A   Clear
4:35 PM 82.4 °F 35.6 °F 19% 29.87 in 10.0 mi WSW 25.3 mph 32.2 mph N/A   Clear
4:55 PM 80.6 °F 33.8 °F 18% 29.87 in 10.0 mi WSW 24.2 mph 32.2 mph N/A   Clear
5:15 PM 80.6 °F 33.8 °F 18% 29.87 in 10.0 mi WSW 21.9 mph 29.9 mph N/A   Clear
5:35 PM 78.8 °F 30.2 °F 17% 29.87 in 10.0 mi WSW 20.7 mph 29.9 mph N/A   Clear
5:55 PM 77.0 °F 30.2 °F 18% 29.88 in 10.0 mi SW 13.8 mph - N/A   Clear
6:15 PM 73.4 °F 32.0 °F 22% 29.88 in 10.0 mi SSW 12.7 mph - N/A   Clear
6:35 PM 71.6 °F 32.0 °F 23% 29.89 in 10.0 mi SSW 11.5 mph - N/A   Clear
6:55 PM 69.8 °F 33.8 °F 27% 29.89 in 10.0 mi SSW 13.8 mph - N/A   Clear
7:15 PM 69.8 °F 33.8 °F 27% 29.89 in 10.0 mi SW 15.0 mph - N/A   Clear
7:35 PM 69.8 °F 33.8 °F 27% 29.89 in 10.0 mi SW 20.7 mph - N/A   Clear
7:55 PM 69.8 °F 33.8 °F 27% 29.90 in 10.0 mi SW 21.9 mph - N/A   Clear
8:15 PM 69.8 °F 33.8 °F 27% 29.91 in 10.0 mi SW 16.1 mph - N/A   Clear
8:35 PM 68.0 °F 33.8 °F 28% 29.91 in 10.0 mi SW 16.1 mph - N/A   Clear
8:55 PM 66.2 °F 33.8 °F 30% 29.92 in 10.0 mi SW 13.8 mph - N/A   Clear
9:15 PM 62.6 °F 33.8 °F 34% 29.92 in 10.0 mi SW 10.4 mph - N/A   Clear
9:35 PM 60.8 °F 33.8 °F 36% 29.92 in 10.0 mi WSW 10.4 mph - N/A   Clear
9:55 PM 60.8 °F 33.8 °F 36% 29.93 in 10.0 mi WSW 11.5 mph - N/A   Clear
10:15 PM 59.0 °F 33.8 °F 39% 29.93 in 10.0 mi SW 10.4 mph - N/A   Clear
10:35 PM 59.0 °F 33.8 °F 39% 29.93 in 10.0 mi SW 8.1 mph - N/A   Clear
10:55 PM 57.2 °F 33.8 °F 41% 29.93 in 10.0 mi SW 10.4 mph - N/A   Clear
11:15 PM 57.2 °F 33.8 °F 41% 29.93 in 10.0 mi WSW 10.4 mph - N/A   Clear
11:55 PM 62.6 °F 33.8 °F 34% 29.92 in 10.0 mi West 11.5 mph - N/A   Clear